Change the Weather History Date:

Tuesday, September 2, 2014

  Actual Average Record
Temperature  
Mean Temperature 85 °F 72 °F  
Max Temperature 92 °F 80 °F 102 °F (1953)
Min Temperature 77 °F 65 °F 51 °F (1886)
Degree Days  
Heating Degree Days 0 0  
Month to date heating degree days 0 0  
Since 1 July heating degree days 0 2  
Cooling Degree Days 20 8  
Month to date cooling degree days 37 16  
Year to date cooling degree days 975 970  
Growing Degree Days 34 (Base 50)    
Moisture  
Dew Point 69 °F    
Average Humidity 62    
Maximum Humidity 82    
Minimum Humidity 41    
Precipitation  
Precipitation 0.00 in 0.13 in 2.12 in (1899)
Month to date precipitation 0.00 0.26  
Year to date precipitation 36.26 33.50  
Snow  
Snow 0.00 in 0.00 in 0.00 in (2002)
Month to date snowfall 0.0 0.0  
Since 1 July snowfall 0.0 0.0  
Snow Depth 0.00 in    
Sea Level Pressure  
Sea Level Pressure 29.87 in    
Wind  
Wind Speed 5 mph (WSW)    
Max Wind Speed 15 mph    
Max Gust Speed 35 mph    
Visibility 10 miles    
Events      
T = Trace of Precipitation, MM = Missing Value Source: NWS Daily Summary

Daily Weather History Graph

Daily Weather History Graph

Search for Another Location

Airport or City:

Trip Planner

Search our weather history database for the weather conditions in past years. The results will help you decide how hot, cold, wet, or windy it might be!

Date:

Astronomy

Sep. 02, 2014 Rise Set
Actual Time 6:23 AM EDT 7:26 PM EDT
Civil Twilight 5:55 AM EDT 7:54 PM EDT
Nautical Twilight 5:22 AM EDT 8:27 PM EDT
Astronomical Twilight 4:47 AM EDT 9:02 PM EDT
Moon 2:08 PM EDT (9/2) No Moon Set
Length of Visible Light 13h 58m
Length of Day
13h 02m
First Quarter, 52% of the Moon is Illuminated
Sep 2
First Quarter
Sep 8
Full
Sep 15
Last Quarter
Sep 24
New
Oct 1
First Quarter

Hourly Weather History & Observations

Time (EDT) Temp. Heat Index Dew Point Humidity Pressure Visibility Wind Dir Wind Speed Gust Speed Precip Events Conditions
12:51 AM 79.0 °F - 72.0 °F 79% 29.94 in 10.0 mi Variable 4.6 mph - N/A   Clear
1:51 AM 79.0 °F - 72.0 °F 79% 29.92 in 10.0 mi WSW 5.8 mph - N/A   Clear
2:51 AM 80.1 °F 83.8 °F 72.0 °F 76% 29.92 in 10.0 mi Variable 5.8 mph - N/A   Clear
3:51 AM 78.1 °F - 72.0 °F 81% 29.91 in 10.0 mi Calm Calm - N/A   Clear
4:51 AM 78.1 °F - 72.0 °F 81% 29.90 in 10.0 mi Variable 3.5 mph - N/A   Clear
5:51 AM 78.1 °F - 72.0 °F 81% 29.90 in 10.0 mi Variable 4.6 mph - N/A   Clear
6:51 AM 77.0 °F - 72.0 °F 84% 29.91 in 9.0 mi West 4.6 mph - N/A   Clear
7:51 AM 79.0 °F - 72.0 °F 79% 29.92 in 10.0 mi Variable 3.5 mph - N/A   Clear
8:51 AM 81.0 °F 85.2 °F 72.0 °F 74% 29.92 in 10.0 mi Calm Calm - N/A   Clear
9:51 AM 82.0 °F 86.3 °F 71.1 °F 69% 29.93 in 10.0 mi Variable 3.5 mph - N/A   Partly Cloudy
10:51 AM 86.0 °F 90.7 °F 70.0 °F 59% 29.92 in 10.0 mi Variable 3.5 mph - N/A   Clear
11:51 AM 88.0 °F 92.9 °F 70.0 °F 55% 29.91 in 10.0 mi Variable 3.5 mph - N/A   Clear
12:51 PM 91.0 °F 95.6 °F 69.1 °F 48% 29.88 in 10.0 mi Calm Calm - N/A   Clear
1:51 PM 88.0 °F 90.7 °F 66.9 °F 49% 29.87 in 10.0 mi Variable 6.9 mph - N/A   Mostly Cloudy
2:51 PM 91.9 °F 95.9 °F 68.0 °F 45% 29.84 in 10.0 mi Variable 3.5 mph - N/A   Clear
3:51 PM 89.1 °F 91.3 °F 66.0 °F 46% 29.82 in 9.0 mi WSW 8.1 mph - N/A   Mostly Cloudy
4:51 PM 91.0 °F 93.0 °F 64.9 °F 42% 29.82 in 10.0 mi North - - N/A   Partly Cloudy
5:51 PM 88.0 °F 89.3 °F 64.0 °F 45% 29.80 in 10.0 mi Variable 4.6 mph - N/A   Partly Cloudy
6:51 PM 89.1 °F 90.3 °F 64.0 °F 43% 29.80 in 10.0 mi WSW 10.4 mph 18.4 mph N/A   Clear
7:51 PM 86.0 °F 87.3 °F 64.0 °F 48% 29.81 in 10.0 mi West 6.9 mph - N/A   Clear
8:51 PM 86.0 °F 90.1 °F 69.1 °F 57% 29.81 in 10.0 mi Variable 4.6 mph - N/A   Clear
9:51 PM 84.0 °F 87.8 °F 69.1 °F 61% 29.81 in 10.0 mi WSW 10.4 mph 17.3 mph N/A   Clear
10:51 PM 84.2 °F 85.6 °F 64.4 °F 51% 29.82 in 10.0 mi WSW 13.8 mph 21.9 mph N/A   Clear
11:51 PM 82.0 °F 83.4 °F 64.0 °F 54% 29.82 in 10.0 mi West 8.1 mph 24.2 mph N/A   Clear